COSMOS 2251 DEB, 34637

Orbit data source: Space-Track

COSMOS 2251 DEB, 34637 is space debris in LEO originally from a launch on Wed, 16 Jun 1993 UTC launched from the Plesetsk Missile And Space Complex (PKMTR). The debris from Iridium 33, an American commercial communications satellite, has been tracked extensively since its accidental collision with the defunct Russian satellite Cosmos 2251 in 2009. This event, occurring at high speed in low Earth orbit (LEO), generated thousands of pieces of space debris, significantly increasing the risk of further collisions. The Iridium 33 debris cloud has impacted space traffic management and orbital debris mitigation strategies, making it a subject of ongoing study in space situational awareness.

Loading next visibility...
Identifier
34637, 1993-036XJ
Orbit
LEO
Country
Flag of CISCIS
Related business
Manufacturer
Unknown
Mission
Spacecraft
Bus & Motor
Unknown
Mass
Unknown
Launch date (UTC)
1993-06-16 (33 years ago)
Launch vehicle
Unknown
Launch site
Plesetsk Missile And Space Complex (PKMTR)
Object type
Payload
Rocket body
Debris
Shape & HBR
Unknown shape, 0.1 m
Radar Cross Section
Small (<0.1 m²)

Expand to show TLE details & history
Last TLE update: 11 hours ago

TLE from 11 hours ago
0 COSMOS 2251 DEB
1 34637U 93036XJ  26123.60510645  .00003203  00000-0  64298-3 0  9995
2 34637  74.0489 190.3215 0050699 225.0528 286.6699 14.61296917905984
Epoch: 2026-05-03T14:31Z
TLE epoch observation values (Epoch: 2026-05-03T14:31:21.197Z)
Latitude
27.67593°
Longitude
-77.59778°
Altitude
681.982 km
Speed
7.524 km/s
True Right ascension
00h 06m 59s
True Declination
27° 31' 60"
Sunlit
Object was in daylight at epoch
Visualization orbit readout
Latitude
Unknown
Longitude
Unknown
Altitude
Unknown
Speed
Unknown
Apparent Right ascension
Unknown
Apparent Declination
Unknown
Sunlit
N/A
Visualization observer readout
Local Sidereal Time
09:33:23
Azimuth
Unknown
Elevation
Unknown
Doppler factor
Unknown
Orbital elements
Apogee altitude
722.402 km
Perigee altitude
650.767 km
Semi-major axis
7,064.721 km
Eccentricity
0.00507
Inclination
74.0489°
RAAN
190.3215°
Arg. of periapsis
225.0528°
True anomaly
286.11234°
Mean anomaly
286.6699°
Eccentric anomaly
286.39122°
Mean motion
3.65511 °/min
Orbital period
98.49 mins
BSTAR
0.00064298
Loading maneuver chart data...
Computing Atmospheric mass density...
Loading historical data...
Loading historical data...
Loading historical data...
Loading historical data...
Loading historical data...
Loading historical data...
Loading historical data...

Documentation

Showing up to 5 results
|